Regional Weather Roundup
Issued by NWS Newport/Morehead, NC

Current Version | Previous Version | Graphics & Text | Print | Product List | Glossary Off
Versions: 1 2 3 4 5 6 7 8 9 10 11 12 13 14 15 16 17 18 19 20 21 22 23 24 25 26 27 28 29 30 31 32 33 34 35 36 37 38 39 40 41 42 43 44 45 46 47 48 49 50
051 ASUS42 KMHX 270113 RWRMHX WEATHER ROUNDUP FOR EASTERN NORTH CAROLINA NATIONAL WEATHER SERVICE NEWPORT/MOREHEAD CITY NC 800 PM EST SUN FEB 26 2017 NOTE: "FAIR" INDICATES FEW OR NO CLOUDS BELOW 12,000 FEET WITH NO SIGNIFICANT WEATHER AND/OR OBSTRUCTIONS TO VISIBILITY NCZ015>017-031-032-045>047-102-103-270200- NORTH COAST CITY SKY/WX TMP DP RH WIND PRES REMARKS EDENTON CLEAR 44 31 59 CALM 30.29R ELIZABETH CITY CLEAR 43 37 79 E9 30.29R KITTY HAWK NOT AVBL MANTEO CLEAR 43 36 77 E5 30.29R $$ NCZ045>047-081-094-103-104-270200- CENTRAL COAST CITY SKY/WX TMP DP RH WIND PRES REMARKS FRISCO CLEAR 43 33 68 CALM 30.27R $$ NCZ095-097-098-100-101-270200- SOUTHERN COAST CITY SKY/WX TMP DP RH WIND PRES REMARKS BEAUFORT PTCLDY 52 35 52 W9 30.28R CEDAR ISLAND NOT AVBL JACKSONVILLE PTCLDY 44 36 73 S3 30.28R PINEY ISLAND CLEAR N/A N/A N/A CALM 30.27R WILMINGTON PTCLDY 46 34 62 CALM 30.28R $$ NCZ011>013-027>030-043-044-078>080-089-090>093-098-270200- COASTAL PLAIN CITY SKY/WX TMP DP RH WIND PRES REMARKS AHOSKIE N/A 38 27 65 CALM 30.29R CLINTON CLEAR 45 30 56 CALM 30.28R ELIZABETHTOWN CLEAR 46 32 58 CALM 30.28R GOLDSBORO NOT AVBL GREENVILLE CLEAR 43 27 52 CALM 30.29R HAVELOCK CLEAR 45 30 55 CALM 30.29 KENANSVILLE CLEAR 39 28 65 CALM 30.28R KINSTON CLEAR 39 28 65 CALM 30.29R NEW BERN CLEAR 44 32 62 CALM 30.29R RICHLANDS CLEAR 40 33 76 CALM 30.29R ROCKY MOUNT CLEAR 39 32 76 CALM 30.28R WASHINGTON CLEAR 45 27 49 CALM 30.29R WHITEVILLE CLEAR 46 32 58 CALM 30.27R $$ AMZ130-135-150-152-154-156-158-170-250-252-270-ANZ085-086-088-633-658-670-270200- MARINE OBSERVATIONS STATION/POSITION TIME TEMP WIND PRES WAVE SWELL AIR SEA DIR/SP/G HT/PER HT/PER (UTC) (F) (DEG/KT/KT) (MB) (FT/S) (FT/S) CHESAPEAKE LIGHT NOT AVBL 64 E VA BEACH 0050 44 50 50/ 4/ 6 1025.5 5/10 5/10 DUCK 0048 45 49 110/ 9/ 12 1025.0 2 E DUCK 0030 50 N/A 4/10 2/11 OREGON INLET 0048 60/ 6/ 7 N/A 13E OREGON INLT NOT AVBL HATTERAS CG 0048 53 61 250/ 7/ 11 1024.6 DIAMOND BUOY 0050 56 72 280/ 8/ 14 1025.1 4/ 8 5/ 8 CAPE LOOKOUT 0000 54 250/ 5/ 6 1024.0 BEAUFORT LAB 0048 54 62 300/ 7/ 9 1024.3 30 SE NEW RVR IN 0008 56 250/ 6/ 12 1024.7 30 SE NEW RVR IN 0043 66 N/A 3/ 9 2/11 27 SE WRIGHTSVLE 0008 56 63 240/ 8/ 10 1024.2 5 SE WRIGHTSVLE 0008 55 58 200/ 8/ 14 1024.4 225 S CAPE HAT 2350 66 71 350/ 10/ 12 1023.3 5/ 7 5/ 7 41 SE CHARLESTON 2350 59 69 210/ 2/ 2 1024.2 3/10 3/10 $$

USA.gov is the U.S. government's official web portal to all federal, state and local government web resources and services.